Overview Statistics Trail Chart Weather Telemetry Raw packets
 

This is the latest recevied weather packets stored in our database for station/object 4S6DRJ-13. If no packets are shown the sender has not sent any weather packets the latest 10 day(s).

<< 84 85 86 87 88 89 90 >>
Time Temp. Humidity Pressure Rain* Wind** Luminosity Snow
1788327257 31.11° C 70% 1010.5 hPa 0 mm 1.34 m/s, 273° 1142 W/m² -
1788327196 31.11° C 70% 1010.5 hPa 0 mm 1.79 m/s, 255° 1140 W/m² -
1788327135 31.11° C 70% 1010.2 hPa 0 mm 0.89 m/s, 21° 394 W/m² -
1788327075 31.11° C 69% 1010.4 hPa 0 mm 2.68 m/s, 279° 1134 W/m² -
1788327013 31.11° C 70% 1010.6 hPa 0 mm 1.34 m/s, 332° 790 W/m² -
1788326952 31.11° C 70% 1010.6 hPa 0 mm 0.89 m/s, 252° 1135 W/m² -
1788326891 31.11° C 71% 1010.5 hPa 0 mm 0 m/s 425 W/m² -
1788326830 31.67° C 70% 1010.5 hPa 0 mm 1.34 m/s, 286° 360 W/m² -
1788326769 31.67° C 68% 1010.4 hPa 0 mm 1.79 m/s, 181° 1101 W/m² -
1788326708 31.67° C 68% 1010.5 hPa 0 mm 1.34 m/s, 185° 291 W/m² -
1788326647 31.67° C 68% 1010.7 hPa 0 mm 1.79 m/s, 310° 325 W/m² -
1788326586 31.67° C 67% 1010.6 hPa 0 mm 2.24 m/s, 122° 1120 W/m² -
1788326525 31.67° C 68% 1010.6 hPa 0 mm 1.79 m/s, 184° 1135 W/m² -
1788326464 31.67° C 69% 1010.6 hPa 0 mm 1.34 m/s, 310° 1130 W/m² -
1788326403 31.67° C 69% 1010.6 hPa 0 mm 1.79 m/s, 265° 402 W/m² -
1788326342 31.11° C 69% 1010.5 hPa 0 mm 1.34 m/s, 95° 555 W/m² -
1788326281 31.11° C 70% 1010.7 hPa 0 mm 0.89 m/s, 229° 1127 W/m² -
1788326220 31.11° C 69% 1010.4 hPa 0 mm 0.89 m/s, 317° 1120 W/m² -
1788326159 31.11° C 68% 1010.6 hPa 0 mm 1.34 m/s, 245° 1118 W/m² -
1788326099 31.11° C 68% 1010.6 hPa 0 mm 2.24 m/s, 291° 1119 W/m² -
1788326038 31.11° C 67% 1010.5 hPa 0 mm 2.68 m/s, 157° 455 W/m² -
1788325976 31.67° C 66% 1010.8 hPa 0 mm 2.24 m/s, 227° 249 W/m² -
1788325915 31.67° C 66% 1010.6 hPa 0 mm 2.68 m/s, 278° 1123 W/m² -
1788325854 31.67° C 67% 1010.6 hPa 0 mm 1.79 m/s, 214° 1119 W/m² -
1788325794 31.67° C 68% 1010.6 hPa 0 mm 1.79 m/s, 355° 1116 W/m² -

* Rain latest hour (hover to see other rain measurements)
** Current wind speed in m/s (hover to see current wind gust speed)